Weather History for Gadsden, AL

Change the Weather History Date:

Tuesday, November 20, 2012

  Actual Average Record
Temperature  
Mean Temperature 52 °F -  
Max Temperature 68 °F 59 °F 80 °F (1942)
Min Temperature 35 °F 37 °F 18 °F (1951)
Degree Days  
Heating Degree Days 14    
Growing Degree Days 2 (Base 50)    
Moisture  
Dew Point 40 °F    
Average Humidity 71    
Maximum Humidity 93    
Minimum Humidity 35    
Precipitation  
Precipitation 0.00 in - - ()
Sea Level Pressure  
Sea Level Pressure 30.15 in    
Wind  
Wind Speed 2 mph (WNW)    
Max Wind Speed 7 mph    
Max Gust Speed -    
Visibility 10 miles    
Events      
Averages and records for this station are not official NWS values.
T = Trace of Precipitation, MM = Missing Value Source: NWS Daily Summary

Daily Weather History Graph

Daily Weather History Graph

Search for Another Location

Airport:

Trip Planner

Search our weather history database for the weather conditions in past years. The results will help you decide how hot, cold, wet, or windy it might be!

Date:

Astronomy

Nov. 20, 2012 Rise Set
Actual Time 6:21 AM CST 4:37 PM CST
Civil Twilight 5:55 AM CST 5:04 PM CST
Nautical Twilight 5:24 AM CST 5:35 PM CST
Astronomical Twilight 4:54 AM CST 6:05 PM CST
Moon 12:05 PM CST (11/20) 11:58 PM CST (11/20)
Length of Visible Light 11h 09m
Length of Day
10h 16m
First Quarter, 51% of the Moon is Illuminated
Nov 20
First Quarter
Nov 28
Full
Dec 6
Last Quarter
Dec 13
New
Dec 19
First Quarter

Hourly Weather History & Observations

Time (CST) Temp. Windchill Dew Point Humidity Pressure Visibility Wind Dir Wind Speed Gust Speed Precip Events Conditions
12:15 AM 41.0 °F 39.0 °F 37.4 °F 87% 30.19 in 10.0 mi NW 3.5 mph - N/A   Partly Cloudy
12:35 AM 42.8 °F - 39.2 °F 87% 30.20 in 10.0 mi Calm Calm - N/A   Scattered Clouds
12:55 AM 42.8 °F - 39.2 °F 87% 30.19 in 10.0 mi Calm Calm - N/A   Partly Cloudy
1:15 AM 42.8 °F - 37.4 °F 81% 30.19 in 10.0 mi Calm Calm - N/A   Partly Cloudy
1:35 AM 41.0 °F 38.0 °F 37.4 °F 87% 30.18 in 10.0 mi WSW 4.6 mph - N/A   Clear
1:55 AM 39.2 °F 37.0 °F 35.6 °F 87% 30.18 in 10.0 mi WSW 3.5 mph - N/A   Clear
2:15 AM 37.4 °F 33.8 °F 35.6 °F 93% 30.18 in 10.0 mi WSW 4.6 mph - N/A   Clear
2:35 AM 37.4 °F 34.9 °F 35.6 °F 93% 30.18 in 10.0 mi West 3.5 mph - N/A   Clear
2:55 AM 39.2 °F 37.0 °F 35.6 °F 87% 30.18 in 10.0 mi West 3.5 mph - N/A   Clear
3:15 AM 39.2 °F - 35.6 °F 87% 30.17 in 10.0 mi Calm Calm - N/A   Clear
3:35 AM 39.2 °F 35.9 °F 35.6 °F 87% 30.18 in 10.0 mi WSW 4.6 mph - N/A   Scattered Clouds
3:55 AM 37.4 °F - 35.6 °F 93% 30.17 in 10.0 mi Calm Calm - N/A   Partly Cloudy
4:15 AM 37.4 °F - 35.6 °F 93% 30.17 in 10.0 mi Calm Calm - N/A   Clear
4:35 AM 37.4 °F - 35.6 °F 93% 30.18 in 10.0 mi Calm Calm - N/A   Clear
4:55 AM 39.2 °F - 35.6 °F 87% 30.17 in 10.0 mi Calm Calm - N/A   Scattered Clouds
5:15 AM 37.4 °F 34.9 °F 35.6 °F 93% 30.18 in 10.0 mi West 3.5 mph - N/A   Partly Cloudy
5:35 AM 37.4 °F - 33.8 °F 87% 30.18 in 10.0 mi Calm Calm - N/A   Clear
5:55 AM 37.4 °F - 33.8 °F 87% 30.18 in 10.0 mi Calm Calm - N/A   Clear
6:15 AM 37.4 °F - 33.8 °F 87% 30.19 in 10.0 mi Calm Calm - N/A   Clear
6:35 AM 35.6 °F - 33.8 °F 93% 30.20 in 10.0 mi Calm Calm - N/A   Clear
6:55 AM 35.6 °F - 33.8 °F 93% 30.21 in 10.0 mi Calm Calm - N/A   Clear
7:15 AM 37.4 °F - 35.6 °F 93% 30.21 in 10.0 mi Calm Calm - N/A   Clear
7:35 AM 41.0 °F - 39.2 °F 93% 30.21 in 10.0 mi Calm Calm - N/A   Clear
7:55 AM 42.8 °F 41.1 °F 39.2 °F 87% 30.21 in 10.0 mi West 3.5 mph - N/A   Clear
8:15 AM 44.6 °F - 41.0 °F 87% 30.21 in 10.0 mi Calm Calm - N/A   Clear
8:35 AM 48.2 °F - 41.0 °F 76% 30.22 in 10.0 mi Calm Calm - N/A   Clear
8:55 AM 51.8 °F - 42.8 °F 71% 30.22 in 10.0 mi Calm Calm - N/A   Clear
9:15 AM 53.6 °F - 42.8 °F 67% 30.22 in 10.0 mi Calm Calm - N/A   Clear
9:35 AM 55.4 °F - 42.8 °F 63% 30.22 in 10.0 mi Calm Calm - N/A   Clear
9:55 AM 59.0 °F - 42.8 °F 55% 30.21 in 10.0 mi Calm Calm - N/A   Clear
10:15 AM 60.8 °F - 44.6 °F 55% 30.20 in 10.0 mi Calm Calm - N/A   Clear
10:35 AM 62.6 °F - 44.6 °F 52% 30.19 in 10.0 mi NW 4.6 mph - N/A   Clear
10:55 AM 64.4 °F - 42.8 °F 45% 30.18 in 10.0 mi NNE 4.6 mph - N/A   Clear
11:15 AM 64.4 °F - 44.6 °F 49% 30.16 in 10.0 mi NNE 4.6 mph - N/A   Clear
11:35 AM 66.2 °F - 42.8 °F 43% 30.15 in 10.0 mi NE 5.8 mph - N/A   Clear
11:55 AM 66.2 °F - 41.0 °F 40% 30.14 in 10.0 mi Calm Calm - N/A   Clear
12:15 PM 66.2 °F - 42.8 °F 43% 30.13 in 10.0 mi West 3.5 mph - N/A   Clear
12:35 PM 66.2 °F - 41.0 °F 40% 30.12 in 10.0 mi NNW 5.8 mph - N/A   Clear
12:55 PM 68.0 °F - 42.8 °F 40% 30.12 in 10.0 mi WNW 3.5 mph - N/A   Clear
1:15 PM 68.0 °F - 41.0 °F 37% 30.11 in 10.0 mi North 3.5 mph - N/A   Clear
1:35 PM 68.0 °F - 41.0 °F 37% 30.11 in 10.0 mi NW 6.9 mph - N/A   Clear
1:55 PM 68.0 °F - 39.2 °F 35% 30.10 in 10.0 mi North 6.9 mph - N/A   Clear
2:15 PM 68.0 °F - 41.0 °F 37% 30.10 in 10.0 mi Calm Calm - N/A   Clear
2:35 PM 68.0 °F - 41.0 °F 37% 30.10 in 10.0 mi NW 5.8 mph - N/A   Clear
2:55 PM 68.0 °F - 41.0 °F 37% 30.10 in 10.0 mi North 3.5 mph - N/A   Clear
3:15 PM 66.2 °F - 41.0 °F 40% 30.10 in 10.0 mi WNW 5.8 mph - N/A   Clear
3:35 PM 66.2 °F - 42.8 °F 43% 30.09 in 10.0 mi Calm Calm - N/A   Clear
3:55 PM 66.2 °F - 42.8 °F 43% 30.09 in 10.0 mi West 3.5 mph - N/A   Clear
4:35 PM 62.6 °F - 39.2 °F 42% 30.09 in 10.0 mi NW 3.5 mph - N/A   Clear
4:55 PM 57.2 °F - 42.8 °F 59% 30.09 in 10.0 mi Calm Calm - N/A   Clear
5:15 PM 55.4 °F - 42.8 °F 63% 30.09 in 10.0 mi Calm Calm - N/A   Clear
5:35 PM 53.6 °F - 42.8 °F 67% 30.09 in 10.0 mi Calm Calm - N/A   Clear
5:55 PM 51.8 °F - 41.0 °F 67% 30.10 in 10.0 mi Calm Calm - N/A   Clear
6:15 PM 51.8 °F - 41.0 °F 67% 30.10 in 10.0 mi Calm Calm - N/A   Clear
6:35 PM 48.2 °F - 41.0 °F 76% 30.10 in 10.0 mi Calm Calm - N/A   Clear
6:55 PM 48.2 °F - 41.0 °F 76% 30.11 in 10.0 mi Calm Calm - N/A   Clear
7:15 PM 48.2 °F - 39.2 °F 71% 30.12 in 10.0 mi Calm Calm - N/A   Clear
7:35 PM 46.4 °F - 39.2 °F 76% 30.12 in 10.0 mi Calm Calm - N/A   Clear
7:55 PM 46.4 °F - 39.2 °F 76% 30.12 in 10.0 mi Calm Calm - N/A   Clear
8:15 PM 46.4 °F - 41.0 °F 81% 30.13 in 10.0 mi Calm Calm - N/A   Mostly Cloudy
8:35 PM 48.2 °F - 42.8 °F 82% 30.13 in 10.0 mi Calm Calm - N/A   Overcast
8:55 PM 48.2 °F - 44.6 °F 87% 30.13 in 10.0 mi Calm Calm - N/A   Overcast
9:15 PM 48.2 °F - 42.8 °F 82% 30.13 in 10.0 mi Calm Calm - N/A   Overcast
9:35 PM 48.2 °F - 42.8 °F 82% 30.14 in 10.0 mi Calm Calm - N/A   Overcast
9:55 PM 48.2 °F - 42.8 °F 82% 30.13 in 10.0 mi Calm Calm - N/A   Overcast
10:15 PM 50.0 °F - 42.8 °F 76% 30.13 in 10.0 mi Calm Calm - N/A   Overcast
10:35 PM 48.2 °F - 42.8 °F 82% 30.13 in 10.0 mi Calm Calm - N/A   Overcast
10:55 PM 50.0 °F - 42.8 °F 76% 30.13 in 10.0 mi Calm Calm - N/A   Overcast
11:15 PM 50.0 °F - 44.6 °F 82% 30.13 in 10.0 mi Calm Calm - N/A   Overcast
11:35 PM 50.0 °F - 44.6 °F 82% 30.13 in 10.0 mi Calm Calm - N/A   Overcast
11:55 PM 50.0 °F - 42.8 °F 76% 30.12 in 10.0 mi Calm Calm - N/A   Mostly Cloudy